This is the latest recevied weather packets stored in our database for station/object N1ICS-1. If no packets are shown the sender has not sent any weather packets the latest 10 day(s).
| Time | Temp. | Humidity | Pressure | Rain* | Wind** | Luminosity | Snow |
|---|---|---|---|---|---|---|---|
| 1777416602 | 15° C | 84% | 1015 hPa | 0 mm | - | 127 W/m² | - |
| 1777416302 | 15° C | 84% | 1014.9 hPa | 0 mm | - | 194 W/m² | - |
| 1777416002 | 15° C | 82% | 1015.1 hPa | 0 mm | - | 159 W/m² | - |
| 1777415702 | 15° C | 82% | 1015.3 hPa | 0 mm | - | 296 W/m² | - |
| 1777415404 | 15° C | 83% | 1015.5 hPa | 0 mm | - | 140 W/m² | - |
| 1777415104 | 15° C | 83% | 1015.5 hPa | 0 mm | - | 147 W/m² | - |
| 1777414802 | 15° C | 82% | 1015.6 hPa | 0 mm | - | 124 W/m² | - |
| 1777414501 | 15° C | 83% | 1015.8 hPa | 0 mm | - | 153 W/m² | - |
| 1777414202 | 15° C | 83% | 1016 hPa | 0 mm | - | 145 W/m² | - |
| 1777413902 | 15° C | 83% | 1015.8 hPa | 0 mm | - | 114 W/m² | - |
| 1777413602 | 15° C | 82% | 1016 hPa | 0 mm | - | 116 W/m² | - |
| 1777413301 | 15° C | 83% | 1015.8 hPa | 0 mm | - | 136 W/m² | - |
| 1777413002 | 15° C | 82% | 1015.6 hPa | 0 mm | - | 134 W/m² | - |
| 1777412701 | 15° C | 82% | 1015.5 hPa | 0 mm | - | 189 W/m² | - |
| 1777412402 | 15° C | 82% | 1015.6 hPa | 0 mm | - | 146 W/m² | - |
| 1777412102 | 15° C | 84% | 1015.5 hPa | 0 mm | - | 142 W/m² | - |
| 1777411802 | 15° C | 83% | 1015.4 hPa | 0 mm | - | 170 W/m² | - |
| 1777411501 | 15° C | 85% | 1015.3 hPa | 0 mm | - | 141 W/m² | - |
| 1777411240 | 15° C | 82% | 1015.3 hPa | 0 mm | - | 157 W/m² | - |
| 1777410902 | 15° C | 84% | 1015.2 hPa | 0 mm | - | 214 W/m² | - |
| 1777410602 | 15° C | 83% | 1015.2 hPa | 0 mm | - | 204 W/m² | - |
| 1777410302 | 15.56° C | 82% | 1015 hPa | 0 mm | - | 226 W/m² | - |
| 1777410003 | 15.56° C | 82% | 1015.1 hPa | 0 mm | - | 334 W/m² | - |
| 1777409702 | 15.56° C | 83% | 1015.3 hPa | 0 mm | - | 219 W/m² | - |
| 1777409402 | 15° C | 82% | 1015.3 hPa | 0 mm | - | 269 W/m² | - |
* Rain latest hour (hover to see other rain measurements)
** Current wind speed in m/s (hover to see current wind gust speed)